STARLINK-2572 (48372 NORAD) Tracking and Keplerian Element Data

This shows tracking and keplerian element data for the satellite.

Feedback or suggestion? Click here.




ElementValue
Catalog48372
NameSTARLINK-2572
Epoch Orbit1395
Epoch Day214.72155562
Epoch Year2021
RAAN333.2747
Inclination53.0549
Eccentricity0.0001136
Argument of Perigee106.4688
Mean Anonmoly253.6425
Mean Motion15.06396512
Decay Rate6.02E-06
L11 48372U 21038V 21214.72155562 .00000602 00000-0 59272-4 0 9998
L22 48372 53.0549 333.2747 0001136 106.4688 253.6425 15.06396512 13958

Live tracking and technical data element details for STARLINK-2572 (NORAD 48372). STARLINK-2572 can be tracked NOW for your location showing map with azimuth and elevation plus other details from your city location.

Track the satellite on the map from your city or location and see movement details for azimuth, elevation, latitude, longitude, range, height, and movement on the map or in text.







IsCatalogInMostPopularTable: catalog: 48372, numindb: 31
Update: records affected: 1



GetName: 48372 STARLINK-2572

Hit Count: updated at: Tue, 03 Aug 2021 23:55:31 GMT